| time (UTC) | temp F | wind direction | speed knots | gust knots | rain 1hr in | rain 24hr in | rain mn in | humidity % | barometer mb |
| 20260507203714 | 46 | 30 | 1.7 | 5.2 | 0.02 | 1.67 | 1.67 | 96 | 1016.8 |
| 20260507202716 | 46 | 38 | 3.5 | 7.8 | 0.02 | 1.67 | 1.67 | 96 | 1016.6 |
| 20260507195706 | 46 | 36 | 2.6 | 6.1 | 0.01 | 1.65 | 1.65 | 96 | 1016.3 |
| 20260507194712 | 46 | 28 | 0.9 | 3.5 | 0.00 | 1.65 | 1.65 | 96 | 1016.3 |
| 20260507193716 | 46 | 24 | 2.6 | 7.0 | 0.00 | 1.65 | 1.65 | 96 | 1016.1 |
| 20260507192708 | 46 | 46 | 1.7 | 6.1 | 0.00 | 1.65 | 1.65 | 96 | 1016.1 |
| 20260507191712 | 46 | 54 | 1.7 | 5.2 | 0.00 | 1.65 | 1.65 | 96 | 1015.9 |
| 20260507190715 | 46 | 35 | 2.6 | 7.0 | 0.00 | 1.65 | 1.65 | 95 | 1016.0 |
| 20260507185709 | 46 | 33 | 2.6 | 5.2 | 0.00 | 1.65 | 1.65 | 95 | 1015.7 |
| 20260507184713 | 47 | 17 | 3.5 | 8.7 | 0.00 | 1.65 | 1.65 | 95 | 1015.7 |
| 20260507183706 | 47 | 34 | 1.7 | 6.1 | 0.00 | 1.65 | 1.65 | 95 | 1015.5 |
| 20260507182709 | 47 | 29 | 1.7 | 5.2 | 0.00 | 1.65 | 1.65 | 95 | 1015.5 |
| 20260507180709 | 47 | 37 | 2.6 | 7.0 | 0.01 | 1.65 | 1.65 | 95 | 1015.3 |
| 20260507173709 | 47 | 33 | 1.7 | 3.5 | 0.01 | 1.65 | 1.65 | 95 | 1015.1 |
| 20260507172712 | 47 | 23 | 2.6 | 6.1 | 0.01 | 1.65 | 1.65 | 95 | 1015.0 |
| 20260507171709 | 47 | 30 | 2.6 | 5.2 | 0.01 | 1.65 | 1.65 | 95 | 1014.8 |
| 20260507170710 | 47 | 19 | 3.5 | 6.1 | 0.00 | 1.64 | 1.64 | 95 | 1014.8 |
| 20260507165714 | 47 | 15 | 3.5 | 6.1 | 0.00 | 1.64 | 1.64 | 95 | 1014.6 |
| 20260507164708 | 48 | 23 | 3.5 | 7.0 | 0.00 | 1.63 | 1.63 | 95 | 1014.6 |
| 20260507163712 | 48 | 6 | 3.5 | 6.1 | 0.00 | 1.63 | 1.63 | 95 | 1014.5 |
| 20260507161709 | 48 | 31 | 2.6 | 6.1 | 0.00 | 1.63 | 1.63 | 95 | 1014.3 |
| 20260507160713 | 48 | 36 | 2.6 | 3.5 | 0.00 | 1.63 | 1.63 | 95 | 1014.5 |
| 20260507153716 | 48 | 26 | 2.6 | 6.1 | 0.01 | 1.63 | 1.63 | 95 | 1014.4 |
| 20260507152709 | 49 | 13 | 3.5 | 7.0 | 0.01 | 1.63 | 1.63 | 95 | 1014.2 |
| 20260507151713 | 49 | 27 | 2.6 | 6.1 | 0.01 | 1.63 | 1.63 | 95 | 1014.1 |
| 20260507145714 | 49 | 23 | 2.6 | 6.1 | 0.03 | 1.63 | 1.63 | 95 | 1014.1 |
| 20260507144715 | 49 | 45 | 2.6 | 6.1 | 0.05 | 1.63 | 1.63 | 95 | 1013.9 |
| 20260507143712 | 49 | 30 | 1.7 | 6.1 | 0.05 | 1.63 | 1.63 | 94 | 1013.8 |
| 20260507142210 | 49 | 37 | 2.6 | 6.1 | 0.05 | 1.62 | 1.62 | 94 | 1014.0 |
| 20260507141214 | 49 | 37 | 1.7 | 6.1 | 0.06 | 1.62 | 1.62 | 94 | 1013.9 |
| 20260507140207 | 49 | 31 | 1.7 | 6.1 | 0.06 | 1.62 | 1.62 | 94 | 1013.9 |
| 20260507135211 | 49 | 39 | 0.9 | 2.6 | 0.03 | 1.59 | 1.59 | 94 | 1013.8 |
| 20260507134214 | 49 | 50 | 2.6 | 7.0 | 0.02 | 1.58 | 1.58 | 94 | 1013.8 |
| 20260507133208 | 49 | 36 | 2.6 | 8.7 | 0.02 | 1.57 | 1.57 | 94 | 1013.8 |
| 20260507132217 | 49 | 43 | 2.6 | 5.2 | 0.01 | 1.57 | 1.57 | 94 | 1013.6 |
| 20260507131214 | 49 | 42 | 1.7 | 6.1 | 0.01 | 1.56 | 1.56 | 94 | 1013.6 |
| 20260507130210 | 49 | 31 | 2.6 | 6.1 | 0.01 | 1.56 | 1.56 | 94 | 1013.5 |
| 20260507125211 | 49 | 48 | 1.7 | 5.2 | 0.02 | 1.56 | 1.56 | 94 | 1013.5 |
| 20260507124214 | 49 | 51 | 3.5 | 7.8 | 0.02 | 1.56 | 1.56 | 94 | 1013.4 |
| 20260507123208 | 50 | 47 | 3.5 | 7.0 | 0.03 | 1.56 | 1.56 | 94 | 1013.3 |
| 20260507122213 | 50 | 26 | 0.9 | 3.5 | 0.03 | 1.56 | 1.56 | 94 | 1013.2 |
| 20260507121216 | 50 | 22 | 2.6 | 6.1 | 0.02 | 1.56 | 1.56 | 94 | 1013.1 |
| 20260507115211 | 49 | 49 | 1.7 | 3.5 | 0.01 | 1.54 | 1.54 | 94 | 1013.0 |
| 20260507114214 | 49 | 49 | 1.7 | 5.2 | 0.01 | 1.54 | 1.54 | 94 | 1013.0 |
| 20260507113212 | 49 | 49 | 3.5 | 6.1 | 0.00 | 1.53 | 1.53 | 94 | 1012.9 |
| 20260507112210 | 49 | 39 | 2.6 | 6.1 | 0.00 | 1.53 | 1.53 | 94 | 1012.8 |
| 20260507111215 | 49 | 43 | 2.6 | 6.1 | 0.00 | 1.53 | 1.53 | 94 | 1012.8 |
| 20260507110206 | 49 | 29 | 2.6 | 7.0 | 0.00 | 1.53 | 1.53 | 94 | 1012.8 |
| 20260507105217 | 49 | 39 | 3.5 | 6.1 | 0.00 | 1.53 | 1.53 | 94 | 1012.8 |
| 20260507104220 | 49 | 33 | 1.7 | 5.2 | 0.00 | 1.53 | 1.53 | 94 | 1012.6 |
| 20260507103208 | 49 | 38 | 3.5 | 8.7 | 0.00 | 1.53 | 1.53 | 94 | 1012.6 |
| 20260507102212 | 49 | 31 | 3.5 | 7.8 | 0.00 | 1.53 | 1.53 | 94 | 1012.5 |
| 20260507101213 | 49 | 22 | 3.5 | 7.0 | 0.01 | 1.53 | 1.53 | 94 | 1012.5 |
| 20260507100206 | 49 | 58 | 3.5 | 7.0 | 0.03 | 1.53 | 1.53 | 94 | 1012.5 |
| 20260507095215 | 49 | 33 | 2.6 | 6.1 | 0.04 | 1.53 | 1.53 | 95 | 1012.4 |
| 20260507094218 | 49 | 35 | 3.5 | 7.8 | 0.04 | 1.53 | 1.53 | 95 | 1012.2 |
| 20260507093206 | 49 | 27 | 1.7 | 3.5 | 0.04 | 1.53 | 1.53 | 95 | 1012.2 |
| 20260507092210 | 49 | 50 | 0.9 | 1.7 | 0.04 | 1.53 | 1.53 | 95 | 1012.1 |
| 20260507090209 | 48 | 23 | 2.6 | 6.1 | 0.01 | 1.50 | 1.50 | 95 | 1011.8 |
| 20260507085212 | 48 | 28 | 2.6 | 7.0 | 0.00 | 1.49 | 1.49 | 95 | 1011.7 |
| 20260507083209 | 48 | 21 | 3.5 | 7.0 | 0.00 | 1.49 | 1.49 | 95 | 1011.4 |
| 20260507082215 | 48 | 16 | 1.7 | 6.1 | 0.00 | 1.49 | 1.49 | 94 | 1011.4 |
| 20260507081213 | 48 | 8 | 2.6 | 5.2 | 0.00 | 1.49 | 1.49 | 94 | 1011.3 |
| 20260507080208 | 48 | 63 | 0.9 | 2.6 | 0.00 | 1.49 | 1.49 | 94 | 1011.1 |
| 20260507075209 | 48 | 46 | 0.9 | 2.6 | 0.00 | 1.49 | 1.49 | 94 | 1011.1 |
| 20260507073207 | 48 | 20 | 1.7 | 5.2 | 0.00 | 1.49 | 1.49 | 94 | 1010.9 |
| 20260507072211 | 48 | 38 | 1.7 | 5.2 | 0.00 | 1.49 | 1.49 | 94 | 1010.8 |
| 20260507071212 | 48 | 56 | 1.7 | 3.5 | 0.00 | 1.49 | 1.49 | 94 | 1010.7 |
| 20260507070215 | 48 | 29 | 2.6 | 7.0 | 0.00 | 1.49 | 1.49 | 94 | 1010.6 |
| 20260507065213 | 48 | 28 | 1.7 | 5.2 | 0.00 | 1.49 | 1.49 | 94 | 1010.5 |
| 20260507064206 | 48 | 48 | 0.9 | 2.6 | 0.00 | 1.49 | 1.49 | 94 | 1010.5 |
| 20260507063210 | 48 | 39 | 1.7 | 5.2 | 0.00 | 1.49 | 1.49 | 94 | 1010.4 |
| 20260507062215 | 48 | 55 | 1.7 | 5.2 | 0.00 | 1.49 | 1.49 | 94 | 1010.4 |
| 20260507061215 | 48 | 71 | 1.7 | 5.2 | 0.00 | 1.49 | 1.49 | 94 | 1010.3 |
| 20260507060211 | 48 | 73 | 1.7 | 5.2 | 0.00 | 1.49 | 1.49 | 94 | 1010.2 |
| 20260507055213 | 48 | 84 | 0.9 | 2.6 | 0.01 | 1.49 | 1.49 | 94 | 1010.1 |
| 20260507053210 | 48 | 70 | 1.7 | 5.2 | 0.02 | 1.49 | 1.49 | 95 | 1009.7 |
| 20260507052214 | 48 | 69 | 1.7 | 3.5 | 0.04 | 1.49 | 1.49 | 95 | 1009.4 |
| 20260507051217 | 48 | 70 | 4.3 | 9.6 | 0.07 | 1.48 | 1.48 | 95 | 1009.6 |
| 20260507045210 | 48 | 45 | 1.7 | 5.2 | 0.09 | 1.48 | 1.48 | 95 | 1009.4 |
| 20260507044214 | 48 | 70 | 1.7 | 5.2 | 0.08 | 1.47 | 1.47 | 94 | 1009.4 |
| 20260507042211 | 48 | 45 | 0.9 | 2.6 | 0.06 | 1.44 | 1.44 | 94 | 1009.4 |
| 20260507041214 | 48 | 33 | 2.6 | 5.2 | 0.03 | 1.42 | 1.42 | 94 | 1009.2 |
| 20260507040207 | 48 | 358 | 0.0 | 2.6 | 0.03 | 1.41 | 1.41 | 94 | 1009.1 |
| 20260507035210 | 48 | 32 | 0.9 | 5.2 | 0.01 | 1.39 | 1.39 | 94 | 1009.0 |
| 20260507034213 | 48 | 35 | 1.7 | 5.2 | 0.01 | 1.39 | 1.39 | 94 | 1009.0 |
| 20260507033211 | 48 | 35 | 1.7 | 5.2 | 0.01 | 1.39 | 1.39 | 94 | 1008.9 |
| 20260507032212 | 48 | 22 | 1.7 | 5.2 | 0.01 | 1.39 | 1.39 | 94 | 1009.0 |
| 20260507030206 | 48 | 16 | 2.6 | 7.8 | 0.01 | 1.39 | 1.39 | 94 | 1008.9 |
| 20260507025210 | 48 | 17 | 3.5 | 7.0 | 0.01 | 1.38 | 1.38 | 94 | 1008.9 |
| 20260507024218 | 48 | 4 | 2.6 | 6.1 | 0.02 | 1.38 | 1.38 | 94 | 1008.8 |
| 20260507023207 | 49 | 340 | 3.5 | 7.0 | 0.06 | 1.38 | 1.38 | 94 | 1008.8 |
| 20260507022210 | 49 | 352 | 3.5 | 9.6 | 0.13 | 1.38 | 1.38 | 94 | 1008.6 |
| 20260507021213 | 49 | 4 | 3.5 | 7.0 | 0.17 | 1.38 | 1.38 | 94 | 1008.5 |
| 20260507020207 | 50 | 5 | 4.3 | 7.8 | 0.22 | 1.38 | 1.38 | 94 | 1008.5 |
| 20260507015210 | 50 | 14 | 4.3 | 11.3 | 0.26 | 1.37 | 1.37 | 94 | 1008.4 |
| 20260507014213 | 50 | 349 | 5.2 | 13.0 | 0.28 | 1.35 | 1.35 | 94 | 1008.1 |
| 20260507012210 | 50 | 310 | 1.7 | 3.5 | 0.29 | 1.25 | 1.25 | 93 | 1008.6 |
| 20260507010207 | 51 | 357 | 2.6 | 5.2 | 0.39 | 1.17 | 1.16 | 93 | 1007.9 |
| 20260507005210 | 51 | 14 | 2.6 | 5.2 | 0.41 | 1.12 | 1.12 | 93 | 1007.8 |
| 20260507004214 | 51 | 20 | 2.6 | 5.2 | 0.45 | 1.10 | 1.08 | 93 | 1007.7 |
| 20260507003207 | 51 | 2 | 1.7 | 6.1 | 0.44 | 1.02 | 1.00 | 93 | 1007.6 |
| 20260507002213 | 51 | 27 | 1.7 | 6.1 | 0.49 | 1.00 | 0.96 | 93 | 1007.6 |
| 20260507001216 | 51 | 23 | 3.5 | 7.8 | 0.46 | 0.91 | 0.85 | 93 | 1007.6 |
| 20260507000207 | 51 | 21 | 1.7 | 7.0 | 0.49 | 0.85 | 0.78 | 93 | 1007.7 |
| 20260506235210 | 51 | 45 | 2.6 | 6.1 | 0.55 | 0.79 | 0.71 | 93 | 1007.4 |
| 20260506234213 | 52 | 48 | 2.6 | 7.8 | 0.52 | 0.70 | 0.63 | 92 | 1007.5 |
| 20260506233211 | 52 | 41 | 2.6 | 6.1 | 0.47 | 0.63 | 0.55 | 92 | 1007.6 |
| 20260506232209 | 52 | 43 | 3.5 | 8.7 | 0.41 | 0.57 | 0.46 | 92 | 1007.6 |
| 20260506230216 | 52 | 36 | 2.6 | 7.0 | 0.28 | 0.67 | 0.28 | 90 | 1007.7 |
| 20260506225209 | 53 | 59 | 1.7 | 6.1 | 0.17 | 0.57 | 0.17 | 90 | 1007.7 |
| 20260506224212 | 53 | 36 | 1.7 | 6.1 | 0.11 | 0.52 | 0.11 | 90 | 1007.7 |
| 20260506222214 | 53 | 22 | 3.5 | 7.0 | 0.06 | 0.47 | 0.06 | 89 | 1007.7 |
| 20260506221211 | 54 | 353 | 3.5 | 7.0 | 0.02 | 0.44 | 0.02 | 88 | 1007.6 |
| 20260506220214 | 54 | 356 | 3.5 | 7.0 | 0.00 | 0.41 | 0.41 | 88 | 1007.5 |
| 20260506215208 | 54 | 6 | 3.5 | 7.8 | 0.00 | 0.41 | 0.41 | 88 | 1007.6 |
| 20260506214210 | 54 | 43 | 2.6 | 7.8 | 0.00 | 0.41 | 0.41 | 87 | 1007.4 |
| 20260506213214 | 55 | 51 | 2.6 | 11.3 | 0.00 | 0.41 | 0.41 | 87 | 1007.4 |
| 20260506212212 | 55 | 41 | 2.6 | 7.0 | 0.00 | 0.41 | 0.41 | 86 | 1007.4 |
| 20260506211211 | 55 | 26 | 1.7 | 6.1 | 0.00 | 0.41 | 0.41 | 86 | 1007.3 |
| 20260506210213 | 55 | 42 | 1.7 | 6.1 | 0.00 | 0.41 | 0.41 | 86 | 1007.3 |
| 20260506205207 | 55 | 41 | 4.3 | 8.7 | 0.00 | 0.41 | 0.41 | 86 | 1007.3 |
| 20260506204209 | 55 | 43 | 3.5 | 7.0 | 0.00 | 0.41 | 0.41 | 86 | 1007.5 |